Location: Bremen
(53.0793°N, 8.8017°E)
Time: 16:09:46
(UTC+01:00)

Transit 2A - Pass Details

Date: 05 December 2022
Orbit: 594 x 962 km, 66.7° (Epoch: 31 January)

Event Time Altitude Azimuth Distance (km) Brightness Sun altitude
Rises 18:10:43 0° 308° (NW) 3,248 9.8 -17.1°
Reaches altitude 10° 18:14:07 10° 286° (WNW) 2,396 9.5 -17.6°
Maximum altitude 18:17:01 15° 254° (WSW) 2,145 9.5 -18.0°
Drops below altitude 10° 18:20:03 10° 222° (SW) 2,516 9.5 -18.4°
Sets 18:23:47 0° 200° (SSW) 3,519 9.9 -19.0°
